Location: Bégole
(43.1574°N, 0.3291°E)
Time: 13:21:53
(UTC+00:00)

Cosmos 1697 Rocket - Pass Details

Date: 01 March 2024
Orbit: 831 x 844 km, 71.0° (Epoch: 24 April)

Event Time Altitude Azimuth Distance (km) Brightness Sun altitude
Rises 18:24:08 0° 318° (NW) 3,409 6.5 -7.3°
Reaches altitude 10° 18:27:30 10° 298° (WNW) 2,469 6.2 -7.9°
Maximum altitude 18:30:50 16° 262° (W) 2,059 6.1 -8.5°
Drops below altitude 10° 18:34:09 10° 225° (SW) 2,458 5.9 -9.1°
Sets 18:37:31 0° 205° (SSW) 3,386 6.2 -9.8°
